Weather History for KPPQ - November, 2013

Change the Weather History Date:

Monday, November 4, 2013

  Actual Average (KUIN) Record (KUIN)
Temperature  
Mean Temperature 52 °F 48 °F  
Max Temperature 59 °F 58 °F 79 °F (1914)
Min Temperature 46 °F 39 °F 11 °F (1991)
Degree Days  
Heating Degree Days 12 17  
Month to date heating degree days 66  
Since 1 July heating degree days 490  
Cooling Degree Days 0 0  
Month to date cooling degree days 0  
Year to date cooling degree days 1093  
Growing Degree Days 2 (Base 50)    
Moisture  
Dew Point 40 °F    
Average Humidity 64    
Maximum Humidity 73    
Minimum Humidity 52    
Precipitation  
Precipitation 0.00 in 0.10 in 2.11 in (1981)
Month to date precipitation 0.40  
Year to date precipitation 32.46  
Sea Level Pressure  
Sea Level Pressure 30.13 in    
Wind  
Wind Speed 10 mph (SSE)    
Max Wind Speed 16 mph    
Max Gust Speed 24 mph    
Visibility 10 miles    
Events Rain    
T = Trace of Precipitation, MM = Missing Value Source: NWS Daily Summary

Daily Weather History Graph

Daily Weather History Graph

Search for Another Location

Airport or City:

Trip Planner

Search our weather history database for the weather conditions in past years. The results will help you decide how hot, cold, wet, or windy it might be!

Date:

Astronomy

Nov. 04, 2013 Rise Set
Actual Time 6:35 AM CST 4:57 PM CST
Civil Twilight 6:07 AM CST 5:25 PM CST
Nautical Twilight 5:35 AM CST 5:57 PM CST
Astronomical Twilight 5:03 AM CST 6:29 PM CST
Moon 7:45 AM CST (11/4) 6:02 PM CST (11/4)
Length of Visible Light 11h 18m
Length of Day
10h 22m
New Moon, 2% of the Moon is Illuminated
Nov 4
New Moon
Nov 9
First Quarter
Nov 17
Full
Nov 25
Last Quarter
Dec 2
New

Hourly Weather History & Observations

Time (CST) Temp. Windchill Dew Point Humidity Pressure Visibility Wind Dir Wind Speed Gust Speed Precip Events Conditions
12:15 AM 46.4 °F 41.5 °F 35.8 °F 67% 30.14 in 10.0 mi ESE 10.4 mph - N/A   Clear
12:35 AM 46.6 °F - 35.6 °F 66% 30.14 in 10.0 mi SE 6.9 mph - N/A   Clear
12:55 AM 46.6 °F - 35.6 °F 66% 30.14 in 10.0 mi SE 8.1 mph - N/A   Clear
1:15 AM 46.6 °F - 35.6 °F 66% 30.15 in 10.0 mi SE 8.1 mph - N/A   Clear
1:35 AM 46.4 °F 42.4 °F 35.6 °F 66% 30.13 in 10.0 mi ESE 8.1 mph - N/A   Clear
1:55 AM 46.6 °F - 35.6 °F 66% 30.14 in 10.0 mi SE 8.1 mph - N/A   Clear
2:15 AM 46.4 °F 42.4 °F 35.6 °F 66% 30.13 in 10.0 mi SE 8.1 mph - N/A   Clear
2:35 AM 46.6 °F - 35.8 °F 66% 30.14 in 10.0 mi SE 6.9 mph - N/A   Clear
2:55 AM 46.4 °F 41.9 °F 36.0 °F 67% 30.12 in 10.0 mi ESE 9.2 mph - N/A   Clear
3:15 AM 46.6 °F - 36.0 °F 67% 30.12 in 10.0 mi SE 10.4 mph - N/A   Clear
3:35 AM 46.8 °F - 36.0 °F 66% 30.13 in 10.0 mi SE 11.5 mph - N/A   Clear
3:55 AM 46.9 °F - 36.0 °F 66% 30.12 in 10.0 mi SE 11.5 mph - N/A   Clear
4:15 AM 47.1 °F - 35.8 °F 65% 30.13 in 10.0 mi SE 10.4 mph 17.3 mph N/A   Clear
4:35 AM 46.9 °F - 36.0 °F 66% 30.13 in 10.0 mi SE 11.5 mph - N/A   Clear
4:55 AM 46.9 °F - 36.3 °F 67% 30.13 in 10.0 mi SE 10.4 mph - N/A   Clear
5:15 AM 47.3 °F - 36.5 °F 66% 30.13 in 10.0 mi SE 13.8 mph 18.4 mph N/A   Clear
5:35 AM 47.1 °F - 36.5 °F 67% 30.12 in 10.0 mi SE 11.5 mph - N/A   Clear
5:55 AM 47.1 °F - 36.7 °F 67% 30.13 in 10.0 mi SE 11.5 mph - N/A   Clear
6:15 AM 46.9 °F - 36.9 °F 68% 30.12 in 10.0 mi SE 11.5 mph - N/A   Clear
6:35 AM 46.9 °F - 37.0 °F 68% 30.11 in 10.0 mi SE 12.7 mph 17.3 mph N/A   Clear
6:55 AM 46.9 °F - 37.2 °F 69% 30.12 in 10.0 mi SE 10.4 mph - N/A   Clear
7:15 AM 47.3 °F - 37.4 °F 68% 30.13 in 10.0 mi SSE 9.2 mph - N/A   Clear
7:35 AM 47.7 °F - 37.6 °F 68% 30.13 in 10.0 mi SE 8.1 mph - N/A   Clear
7:55 AM 48.2 °F - 37.6 °F 67% 30.14 in 10.0 mi SSE 9.2 mph - N/A   Clear
8:15 AM 49.1 °F - 37.9 °F 65% 30.14 in 10.0 mi SSE 11.5 mph - N/A   Clear
8:35 AM 49.5 °F - 37.9 °F 65% 30.13 in 10.0 mi SE 11.5 mph - N/A   Clear
8:55 AM 49.8 °F - 37.9 °F 64% 30.12 in 10.0 mi SE 15.0 mph - N/A   Scattered Clouds
9:15 AM 51.1 °F - 38.1 °F 61% 30.13 in 10.0 mi SSE 16.1 mph 20.7 mph N/A   Clear
9:35 AM 51.8 °F - 38.3 °F 60% 30.13 in 10.0 mi SSE 12.7 mph - N/A   Clear
9:55 AM 52.7 °F - 38.3 °F 58% 30.14 in 10.0 mi SSE 11.5 mph 17.3 mph N/A   Clear
10:15 AM 51.4 °F - 40.6 °F 67% 30.13 in 7.0 mi SSE 9.2 mph 19.6 mph N/A Rain Rain
10:35 AM 50.4 °F - 41.9 °F 73% 30.14 in 4.0 mi South 11.5 mph - N/A Rain Light Rain
10:55 AM 50.9 °F - 42.6 °F 73% 30.13 in 7.0 mi SSE 11.5 mph - N/A   Mostly Cloudy
11:15 AM 52.0 °F - 41.7 °F 68% 30.13 in 10.0 mi South 10.4 mph 19.6 mph N/A   Mostly Cloudy
11:35 AM 52.3 °F - 41.5 °F 67% 30.13 in 10.0 mi South 12.7 mph 18.4 mph N/A   Mostly Cloudy
11:55 AM 52.3 °F - 41.2 °F 66% 30.11 in 10.0 mi SSE 12.7 mph 16.1 mph N/A   Overcast
12:15 PM 52.9 °F - 41.0 °F 64% 30.11 in 7.0 mi South 12.7 mph 18.4 mph N/A   Overcast
12:35 PM 52.9 °F - 41.0 °F 64% 30.11 in 5.0 mi South 10.4 mph - N/A   Haze
12:55 PM 53.8 °F - 41.5 °F 63% 30.09 in 10.0 mi SSE 12.7 mph - N/A   Overcast
1:15 PM 55.4 °F - 41.7 °F 60% 30.09 in 10.0 mi South 11.5 mph 16.1 mph N/A   Overcast
1:35 PM 56.8 °F - 42.1 °F 58% 30.08 in 7.0 mi SSE 12.7 mph - N/A   Overcast
1:55 PM 58.1 °F - 42.1 °F 55% 30.08 in 10.0 mi South 12.7 mph 19.6 mph N/A   Overcast
2:15 PM 59.5 °F - 42.1 °F 52% 30.07 in 10.0 mi SSE 15.0 mph 24.2 mph N/A   Overcast
2:35 PM 58.1 °F - 41.9 °F 55% 30.08 in 10.0 mi South 13.8 mph 19.6 mph N/A   Mostly Cloudy
2:55 PM 58.1 °F - 42.3 °F 56% 30.08 in 10.0 mi South 12.7 mph 21.9 mph N/A   Overcast
3:15 PM 59.7 °F - 42.8 °F 54% 30.09 in 10.0 mi South 10.4 mph - N/A   Scattered Clouds
3:35 PM 58.6 °F - 42.8 °F 56% 30.09 in 10.0 mi South 9.2 mph - N/A   Scattered Clouds
3:55 PM 58.1 °F - 43.0 °F 57% 30.10 in 10.0 mi South 5.8 mph - N/A   Scattered Clouds
4:15 PM 58.1 °F - 43.2 °F 58% 30.11 in 10.0 mi South 5.8 mph - N/A   Scattered Clouds
4:35 PM 55.9 °F - 43.0 °F 62% 30.11 in 10.0 mi South 4.6 mph - N/A   Clear
4:55 PM 55.4 °F - 43.0 °F 63% 30.12 in 10.0 mi SSE 4.6 mph - N/A   Mostly Cloudy
5:15 PM 55.4 °F - 43.7 °F 65% 30.13 in 10.0 mi SSE 3.5 mph - N/A   Overcast
5:35 PM 55.9 °F - 43.7 °F 63% 30.13 in 10.0 mi SSE 5.8 mph - N/A   Overcast
5:55 PM 55.4 °F - 43.7 °F 65% 30.13 in 10.0 mi SE 9.2 mph - N/A   Mostly Cloudy
6:15 PM 54.3 °F - 43.2 °F 66% 30.13 in 10.0 mi SE 6.9 mph - N/A   Mostly Cloudy
6:35 PM 55.0 °F - 43.3 °F 65% 30.14 in 10.0 mi SSE 6.9 mph - N/A   Overcast
6:55 PM 55.0 °F - 43.5 °F 65% 30.15 in 10.0 mi SSE 5.8 mph - N/A   Overcast
7:15 PM 55.0 °F - 43.5 °F 65% 30.16 in 10.0 mi SSE 5.8 mph - N/A   Overcast
7:35 PM 54.9 °F - 43.7 °F 66% 30.16 in 10.0 mi SSE 5.8 mph - N/A   Overcast
7:55 PM 54.7 °F - 43.7 °F 66% 30.16 in 10.0 mi SSE 5.8 mph - N/A   Overcast
8:15 PM 54.7 °F - 43.7 °F 66% 30.17 in 10.0 mi SSE 5.8 mph - N/A   Overcast
8:35 PM 54.9 °F - 43.9 °F 66% 30.17 in 10.0 mi South 5.8 mph - N/A   Overcast
8:55 PM 56.3 °F - 44.1 °F 64% 30.18 in 10.0 mi SSE 8.1 mph - N/A   Overcast
9:15 PM 56.3 °F - 44.1 °F 64% 30.18 in 10.0 mi South 8.1 mph - N/A   Overcast
9:35 PM 55.9 °F - 44.2 °F 65% 30.18 in 10.0 mi South 8.1 mph - N/A   Overcast
9:55 PM 56.1 °F - 44.1 °F 64% 30.18 in 10.0 mi SSE 10.4 mph - N/A   Overcast
10:15 PM 55.9 °F - 44.1 °F 64% 30.19 in 10.0 mi South 12.7 mph - N/A   Overcast
10:35 PM 55.8 °F - 44.1 °F 65% 30.19 in 10.0 mi South 9.2 mph - N/A   Overcast
10:55 PM 55.6 °F - 44.4 °F 66% 30.19 in 10.0 mi South 9.2 mph - N/A   Overcast
11:15 PM 55.4 °F - 44.6 °F 67% 30.20 in 10.0 mi South 6.9 mph - N/A   Overcast
11:35 PM 55.4 °F - 44.6 °F 67% 30.20 in 10.0 mi South 6.9 mph - N/A   Overcast
11:55 PM 55.4 °F - 44.8 °F 67% 30.20 in 10.0 mi South 5.8 mph - N/A   Overcast